QPF
0.03 0.03 0.06 0.06 0.09 0.14 0.19 0.21 0.23 0.20 0.17 0.16 0.16 0.18 0.22 0.21 0.20 0.19 0.20 0.22 0.25 0.28 0.29 0.26 0.25 0.21 0.20 0.20 0.20 0.20 0.20 0.18 0.17 0.16 0.13 0.08 0.05 0.05 0.05 0.04 0.04 0.04 0.03
0.04 0.03 0.03 0.04 0.07 0.09 0.12 0.17 0.20 0.18 0.16 0.15 0.16 0.16 0.15 0.16 0.16 0.14 0.13 0.15 0.20 0.25 0.28 0.28 0.22 0.19 0.19 0.19 0.19 0.18 0.17 0.13 0.13 0.16 0.16 0.13 0.11 0.08 0.06 0.05 0.05 0.05 0.05
0.04 0.04 0.03 0.03 0.05 0.07 0.10 0.11 0.16 0.16 0.15 0.16 0.14 0.13 0.12 0.15 0.16 0.14 0.13 0.14 0.18 0.21 0.21 0.21 0.20 0.18 0.18 0.18 0.18 0.18 0.16 0.13 0.13 0.14 0.16 0.15 0.12 0.08 0.07 0.06 0.06 0.06 0.05
0.03 0.03 0.03 0.03 0.04 0.04 0.05 0.06 0.08 0.10 0.11 0.15 0.15 0.15 0.15 0.13 0.12 0.13 0.14 0.13 0.14 0.15 0.18 0.19 0.18 0.16 0.15 0.15 0.15 0.16 0.15 0.15 0.13 0.11 0.12 0.12 0.11 0.10 0.08 0.06 0.06 0.06 0.05
0.03 0.02 0.02 0.02 0.03 0.04 0.03 0.03 0.04 0.05 0.07 0.09 0.10 0.13 0.13 0.12 0.13 0.12 0.12 0.12 0.12 0.12 0.12 0.13 0.13 0.11 0.11 0.12 0.13 0.13 0.14 0.15 0.15 0.14 0.13 0.12 0.11 0.10 0.10 0.08 0.05 0.04 0.03
0.02 0.02 0.02 0.02 0.02 0.02 0.02 0.03 0.03 0.04 0.06 0.07 0.09 0.11 0.10 0.11 0.12 0.12 0.11 0.10 0.10 0.11 0.12 0.13 0.12 0.11 0.11 0.10 0.11 0.11 0.11 0.11 0.11 0.10 0.10 0.10 0.10 0.09 0.09 0.08 0.06 0.04 0.04
0.02 0.02 0.02 0.03 0.03 0.03 0.03 0.03 0.04 0.04 0.04 0.05 0.08 0.11 0.14 0.15 0.16 0.15 0.14 0.13 0.11 0.10 0.09 0.10 0.10 0.10 0.10 0.10 0.09 0.08 0.07 0.06 0.06 0.07 0.07 0.07 0.07 0.06 0.06 0.07 0.07 0.06 0.05
0.03 0.02 0.02 0.03 0.04 0.05 0.05 0.05 0.04 0.05 0.05 0.05 0.06 0.09 0.11 0.12 0.13 0.13 0.13 0.13 0.13 0.11 0.09 0.09 0.09 0.10 0.11 0.11 0.11 0.11 0.10 0.08 0.08 0.07 0.07 0.07 0.06 0.06 0.06 0.07 0.08 0.08 0.07
0.04 0.05 0.04 0.05 0.05 0.05 0.05 0.04 0.03 0.03 0.03 0.03 0.04 0.06 0.08 0.10 0.10 0.08 0.08 0.08 0.08 0.08 0.07 0.06 0.06 0.08 0.08 0.08 0.08 0.08 0.08 0.08 0.07 0.07 0.07 0.06 0.06 0.06 0.06 0.07 0.08 0.08 0.07
0.04 0.05 0.05 0.07 0.06 0.05 0.04 0.03 0.02 0.03 0.04 0.05 0.06 0.07 0.08 0.11 0.11 0.09 0.08 0.07 0.06 0.06 0.05 0.04 0.04 0.04 0.05 0.05 0.05 0.05 0.05 0.04 0.04 0.04 0.03 0.03 0.03 0.03 0.04 0.05 0.06 0.07 0.07
0.04 0.04 0.04 0.04 0.04 0.04 0.03 0.02 0.01 0.02 0.04 0.06 0.07 0.08 0.10 0.11 0.11 0.10 0.09 0.08 0.07 0.06 0.05 0.05 0.04 0.04 0.04 0.04 0.03 0.03 0.03 0.03 0.04 0.04 0.02 0.02 0.02 0.02 0.02 0.02 0.03 0.03 0.04
0.03 0.03 0.04 0.03 0.03 0.04 0.03 0.02 0.02 0.03 0.04 0.05 0.07 0.08 0.09 0.10 0.11 0.11 0.09 0.09 0.09 0.08 0.06 0.04 0.05 0.06 0.05 0.03 0.02 0.02 0.02 0.02 0.03 0.03 0.02 0.02 0.02 0.02 0.02 0.02 0.02 0.02 0.02
0.02 0.02 0.03 0.03 0.03 0.04 0.04 0.04 0.04 0.04 0.03 0.04 0.05 0.07 0.09 0.10 0.10 0.10 0.10 0.09 0.09 0.09 0.07 0.05 0.05 0.04 0.04 0.04 0.03 0.03 0.02 0.02 0.02 0.02 0.02 0.02 0.02 0.01 0.01 0.02 0.02 0.02 0.02
0.03 0.03 0.04 0.04 0.04 0.03 0.05 0.05 0.04 0.04 0.04 0.04 0.05 0.08 0.10 0.11 0.10 0.10 0.09 0.09 0.08 0.08 0.09 0.09 0.07 0.05 0.04 0.04 0.03 0.03 0.03 0.03 0.02 0.01 0.02 0.01 0.01 0.01 0.01 0.02 0.03 0.02 0.02
0.03 0.02 0.04 0.05 0.04 0.04 0.05 0.06 0.05 0.05 0.05 0.05 0.07 0.09 0.11 0.12 0.12 0.11 0.11 0.11 0.10 0.08 0.08 0.09 0.08 0.06 0.05 0.05 0.04 0.03 0.02 0.02 0.02 0.01 0.01 0.01 0.00 0.01 0.01 0.01 0.01 0.02 0.02
0.02 0.02 0.05 0.08 0.05 0.04 0.05 0.05 0.05 0.06 0.06 0.07 0.07 0.08 0.09 0.09 0.09 0.09 0.09 0.09 0.09 0.07 0.07 0.07 0.06 0.05 0.03 0.03 0.02 0.02 0.02 0.02 0.02 0.02 0.01 0.01 0.00 0.00 0.00 0.01 0.01 0.01 0.01
0.03 0.04 0.04 0.06 0.05 0.05 0.04 0.04 0.05 0.06 0.07 0.07 0.07 0.07 0.07 0.07 0.07 0.07 0.06 0.06 0.06 0.05 0.06 0.05 0.05 0.04 0.02 0.01 0.01 0.01 0.02 0.02 0.02 0.02 0.02 0.01 0.01 0.01 0.01 0.01 0.01 0.01 0.01
0.04 0.05 0.06 0.06 0.06 0.05 0.04 0.03 0.05 0.06 0.07 0.06 0.06 0.06 0.06 0.07 0.08 0.07 0.06 0.07 0.06 0.06 0.06 0.05 0.05 0.04 0.02 0.01 0.01 0.01 0.02 0.03 0.03 0.02 0.02 0.03 0.02 0.01 0.01 0.01 0.02 0.02 0.01
0.04 0.06 0.08 0.07 0.07 0.06 0.05 0.05 0.05 0.04 0.05 0.06 0.06 0.05 0.05 0.06 0.06 0.06 0.06 0.06 0.06 0.06 0.06 0.05 0.04 0.04 0.02 0.01 0.00 0.00 0.02 0.03 0.02 0.02 0.01 0.01 0.02 0.01 0.00 0.01 0.04 0.05 0.04
0.05 0.07 0.08 0.08 0.09 0.09 0.08 0.07 0.07 0.06 0.05 0.05 0.04 0.04 0.03 0.03 0.03 0.03 0.04 0.04 0.05 0.05 0.05 0.04 0.05 0.04 0.01 0.00 0.00 0.00 0.02 0.04 0.04 0.04 0.02 0.00 0.00 0.00 0.00 0.02 0.05 0.05 0.05
0.05 0.06 0.08 0.09 0.09 0.09 0.09 0.08 0.08 0.06 0.05 0.03 0.03 0.02 0.02 0.01 0.02 0.03 0.04 0.04 0.03 0.04 0.04 0.05 0.05 0.03 0.01 0.00 0.00 0.00 0.01 0.03 0.04 0.04 0.03 0.01 0.00 0.00 0.00 0.00 0.02 0.02 0.01
0.05 0.06 0.07 0.08 0.09 0.09 0.09 0.08 0.08 0.06 0.04 0.03 0.03 0.03 0.02 0.01 0.01 0.03 0.03 0.03 0.03 0.04 0.04 0.05 0.05 0.04 0.02 0.00 0.00 0.00 0.00 0.01 0.04 0.04 0.03 0.01 0.00 0.00 0.00 0.00 0.00 0.00 0.01
0.04 0.05 0.06 0.06 0.06 0.06 0.07 0.07 0.07 0.05 0.05 0.04 0.05 0.04 0.03 0.02 0.01 0.02 0.02 0.03 0.03 0.03 0.03 0.03 0.04 0.04 0.04 0.01 0.00 0.00 0.00 0.00 0.02 0.02 0.01 0.00 0.00 0.01 0.02 0.01 0.00 0.01 0.03
0.04 0.05 0.05 0.04 0.05 0.05 0.05 0.04 0.04 0.04 0.04 0.05 0.05 0.04 0.03 0.02 0.02 0.02 0.02 0.02 0.02 0.02 0.02 0.03 0.04 0.04 0.03 0.02 0.01 0.02 0.02 0.02 0.02 0.03 0.02 0.01 0.01 0.01 0.03 0.03 0.03 0.03 0.03
0.04 0.04 0.04 0.04 0.04 0.04 0.03 0.03 0.03 0.04 0.05 0.05 0.04 0.03 0.02 0.02 0.02 0.01 0.01 0.01 0.01 0.01 0.01 0.02 0.02 0.02 0.01 0.00 0.00 0.00 0.01 0.01 0.01 0.02 0.04 0.04 0.03 0.02 0.03 0.03 0.03 0.03 0.03
0.04 0.04 0.04 0.04 0.03 0.03 0.03 0.02 0.02 0.03 0.04 0.04 0.03 0.02 0.01 0.01 0.01 0.01 0.01 0.00 0.00 0.00 0.00 0.00 0.00 0.00 0.00 0.00 0.00 0.00 0.00 0.00 0.00 0.01 0.03 0.04 0.03 0.02 0.02 0.02 0.03 0.03 0.04
MSLP
1009.15 1009.52 1009.83 1010.05 1010.18 1010.23 1010.23 1010.21 1010.22 1010.28 1010.44 1010.71 1011.10 1011.60 1012.16 1012.76 1013.34 1013.84 1014.23 1014.50 1014.64 1014.68 1014.66 1014.62 1014.63 1014.74 1014.96 1015.34 1015.85 1016.49 1017.22 1018.00 1018.78 1019.54 1020.24 1020.85 1021.37 1021.78 1022.09 1022.30 1022.43 1022.51 1022.54
1010.50 1010.83 1011.08 1011.22 1011.26 1011.21 1011.11 1010.99 1010.89 1010.87 1010.95 1011.16 1011.49 1011.94 1012.47 1013.03 1013.59 1014.08 1014.48 1014.77 1014.94 1015.01 1015.02 1015.01 1015.04 1015.15 1015.37 1015.73 1016.21 1016.81 1017.50 1018.24 1018.99 1019.71 1020.38 1020.98 1021.48 1021.90 1022.22 1022.46 1022.64 1022.76 1022.85
1011.62 1011.90 1012.08 1012.14 1012.10 1011.96 1011.77 1011.56 1011.39 1011.30 1011.31 1011.46 1011.75 1012.16 1012.67 1013.23 1013.79 1014.32 1014.77 1015.11 1015.34 1015.48 1015.55 1015.59 1015.66 1015.77 1015.98 1016.29 1016.72 1017.25 1017.85 1018.50 1019.16 1019.81 1020.41 1020.95 1021.42 1021.83 1022.16 1022.44 1022.67 1022.86 1023.02
1012.43 1012.65 1012.76 1012.77 1012.67 1012.48 1012.23 1011.97 1011.74 1011.59 1011.56 1011.67 1011.93 1012.32 1012.83 1013.42 1014.02 1014.61 1015.13 1015.57 1015.90 1016.13 1016.28 1016.39 1016.48 1016.61 1016.79 1017.05 1017.40 1017.83 1018.32 1018.84 1019.38 1019.91 1020.41 1020.87 1021.28 1021.65 1021.99 1022.29 1022.57 1022.83 1023.08
1012.89 1013.07 1013.16 1013.14 1013.03 1012.82 1012.56 1012.28 1012.03 1011.85 1011.79 1011.88 1012.12 1012.52 1013.04 1013.67 1014.34 1015.00 1015.63 1016.17 1016.61 1016.94 1017.18 1017.35 1017.47 1017.60 1017.75 1017.95 1018.21 1018.53 1018.90 1019.29 1019.70 1020.09 1020.47 1020.82 1021.15 1021.47 1021.78 1022.09 1022.41 1022.73 1023.04
1013.04 1013.23 1013.33 1013.35 1013.27 1013.10 1012.87 1012.61 1012.36 1012.18 1012.11 1012.19 1012.42 1012.82 1013.37 1014.03 1014.77 1015.52 1016.24 1016.89 1017.43 1017.85 1018.16 1018.37 1018.52 1018.64 1018.76 1018.91 1019.09 1019.31 1019.56 1019.83 1020.11 1020.37 1020.62 1020.86 1021.09 1021.34 1021.60 1021.90 1022.23 1022.58 1022.94
1013.00 1013.23 1013.41 1013.51 1013.51 1013.43 1013.27 1013.06 1012.85 1012.68 1012.61 1012.67 1012.90 1013.30 1013.85 1014.55 1015.33 1016.15 1016.94 1017.66 1018.27 1018.76 1019.11 1019.35 1019.51 1019.62 1019.71 1019.80 1019.92 1020.07 1020.24 1020.41 1020.58 1020.74 1020.88 1021.01 1021.15 1021.31 1021.51 1021.77 1022.08 1022.43 1022.81
1012.90 1013.21 1013.50 1013.72 1013.86 1013.89 1013.83 1013.71 1013.55 1013.40 1013.33 1013.38 1013.58 1013.96 1014.50 1015.19 1015.99 1016.83 1017.65 1018.40 1019.05 1019.56 1019.93 1020.17 1020.31 1020.40 1020.47 1020.54 1020.62 1020.73 1020.85 1020.97 1021.08 1021.16 1021.22 1021.27 1021.33 1021.41 1021.55 1021.75 1022.01 1022.34 1022.70
1012.85 1013.29 1013.71 1014.08 1014.36 1014.53 1014.59 1014.55 1014.45 1014.34 1014.27 1014.30 1014.46 1014.79 1015.29 1015.95 1016.71 1017.52 1018.33 1019.07 1019.69 1020.19 1020.54 1020.76 1020.88 1020.95 1020.99 1021.05 1021.13 1021.23 1021.34 1021.46 1021.55 1021.61 1021.63 1021.63 1021.62 1021.64 1021.71 1021.84 1022.05 1022.33 1022.66
1012.97 1013.53 1014.09 1014.60 1015.02 1015.33 1015.51 1015.57 1015.53 1015.45 1015.38 1015.37 1015.49 1015.75 1016.18 1016.76 1017.45 1018.20 1018.94 1019.62 1020.19 1020.63 1020.94 1021.12 1021.21 1021.26 1021.29 1021.35 1021.44 1021.57 1021.71 1021.85 1021.96 1022.03 1022.06 1022.04 1022.01 1021.98 1022.00 1022.08 1022.23 1022.44 1022.71
1013.30 1013.97 1014.65 1015.28 1015.83 1016.25 1016.54 1016.68 1016.70 1016.65 1016.58 1016.55 1016.61 1016.80 1017.14 1017.62 1018.21 1018.86 1019.50 1020.09 1020.58 1020.95 1021.19 1021.33 1021.38 1021.41 1021.44 1021.51 1021.62 1021.78 1021.97 1022.16 1022.32 1022.44 1022.49 1022.49 1022.46 1022.42 1022.40 1022.44 1022.53 1022.69 1022.90
1013.83 1014.59 1015.34 1016.06 1016.69 1017.21 1017.58 1017.79 1017.87 1017.86 1017.80 1017.75 1017.77 1017.89 1018.14 1018.51 1018.99 1019.52 1020.05 1020.54 1020.94 1021.23 1021.41 1021.50 1021.52 1021.53 1021.55 1021.63 1021.77 1021.96 1022.19 1022.43 1022.65 1022.81 1022.91 1022.95 1022.94 1022.91 1022.89 1022.90 1022.96 1023.07 1023.22
1014.52 1015.32 1016.11 1016.87 1017.55 1018.12 1018.55 1018.83 1018.96 1019.00 1018.96 1018.92 1018.91 1018.98 1019.15 1019.43 1019.80 1020.22 1020.64 1021.03 1021.35 1021.56 1021.69 1021.73 1021.73 1021.72 1021.74 1021.81 1021.96 1022.17 1022.43 1022.70 1022.95 1023.16 1023.31 1023.39 1023.42 1023.42 1023.41 1023.42 1023.46 1023.54 1023.65
1015.28 1016.09 1016.88 1017.64 1018.32 1018.91 1019.38 1019.71 1019.91 1020.00 1020.02 1020.00 1019.99 1020.03 1020.15 1020.35 1020.63 1020.95 1021.28 1021.58 1021.83 1021.99 1022.07 1022.09 1022.07 1022.05 1022.05 1022.12 1022.25 1022.45 1022.71 1022.98 1023.25 1023.48 1023.67 1023.79 1023.86 1023.89 1023.91 1023.94 1023.97 1024.04 1024.12
1016.05 1016.84 1017.60 1018.31 1018.98 1019.56 1020.05 1020.43 1020.68 1020.84 1020.91 1020.94 1020.95 1020.99 1021.07 1021.22 1021.43 1021.67 1021.93 1022.17 1022.36 1022.49 1022.56 1022.56 1022.54 1022.50 1022.50 1022.54 1022.65 1022.81 1023.03 1023.28 1023.54 1023.77 1023.97 1024.12 1024.23 1024.30 1024.35 1024.40 1024.45 1024.51 1024.57
1016.77 1017.51 1018.22 1018.87 1019.49 1020.05 1020.54 1020.95 1021.26 1021.47 1021.61 1021.69 1021.75 1021.80 1021.87 1021.99 1022.14 1022.33 1022.53 1022.73 1022.89 1023.01 1023.07 1023.08 1023.06 1023.03 1023.01 1023.03 1023.09 1023.21 1023.38 1023.58 1023.79 1024.00 1024.20 1024.36 1024.50 1024.61 1024.70 1024.77 1024.84 1024.90 1024.94
1017.42 1018.10 1018.73 1019.32 1019.87 1020.39 1020.86 1021.28 1021.63 1021.90 1022.10 1022.23 1022.33 1022.40 1022.47 1022.56 1022.68 1022.83 1022.99 1023.16 1023.31 1023.43 1023.51 1023.54 1023.54 1023.52 1023.51 1023.50 1023.53 1023.60 1023.70 1023.84 1024.01 1024.18 1024.36 1024.53 1024.68 1024.81 1024.93 1025.03 1025.11 1025.17 1025.20
1017.98 1018.60 1019.15 1019.66 1020.14 1020.60 1021.04 1021.45 1021.81 1022.11 1022.35 1022.53 1022.65 1022.74 1022.82 1022.89 1022.98 1023.10 1023.24 1023.39 1023.54 1023.67 1023.78 1023.85 1023.89 1023.91 1023.90 1023.90 1023.90 1023.92 1023.98 1024.06 1024.18 1024.31 1024.46 1024.62 1024.78 1024.93 1025.07 1025.18 1025.26 1025.31 1025.33
1018.47 1019.04 1019.51 1019.94 1020.34 1020.73 1021.11 1021.49 1021.84 1022.15 1022.41 1022.60 1022.74 1022.84 1022.90 1022.96 1023.03 1023.13 1023.25 1023.39 1023.55 1023.72 1023.87 1023.99 1024.08 1024.14 1024.18 1024.19 1024.19 1024.19 1024.21 1024.25 1024.32 1024.42 1024.55 1024.69 1024.84 1025.00 1025.14 1025.25 1025.33 1025.36 1025.35
1018.92 1019.43 1019.84 1020.18 1020.50 1020.81 1021.13 1021.46 1021.77 1022.06 1022.31 1022.50 1022.64 1022.73 1022.79 1022.83 1022.89 1022.97 1023.08 1023.23 1023.41 1023.61 1023.81 1023.99 1024.15 1024.27 1024.35 1024.39 1024.41 1024.42 1024.42 1024.44 1024.48 1024.55 1024.65 1024.77 1024.91 1025.05 1025.18 1025.28 1025.34 1025.35 1025.31
1019.34 1019.79 1020.14 1020.41 1020.65 1020.89 1021.13 1021.39 1021.65 1021.90 1022.12 1022.30 1022.42 1022.51 1022.56 1022.60 1022.65 1022.73 1022.85 1023.01 1023.22 1023.45 1023.70 1023.95 1024.17 1024.36 1024.50 1024.59 1024.63 1024.65 1024.66 1024.66 1024.68 1024.72 1024.79 1024.88 1024.99 1025.11 1025.21 1025.29 1025.32 1025.30 1025.23
1019.72 1020.14 1020.43 1020.64 1020.82 1020.98 1021.15 1021.34 1021.54 1021.75 1021.93 1022.09 1022.21 1022.29 1022.35 1022.40 1022.46 1022.55 1022.68 1022.87 1023.10 1023.38 1023.68 1023.98 1024.26 1024.50 1024.68 1024.82 1024.90 1024.93 1024.94 1024.93 1024.92 1024.93 1024.96 1025.02 1025.09 1025.17 1025.24 1025.28 1025.28 1025.23 1025.12
1020.06 1020.44 1020.70 1020.87 1020.99 1021.09 1021.20 1021.33 1021.48 1021.65 1021.81 1021.95 1022.07 1022.17 1022.24 1022.32 1022.41 1022.52 1022.69 1022.90 1023.17 1023.48 1023.81 1024.15 1024.47 1024.75 1024.97 1025.12 1025.22 1025.26 1025.25 1025.22 1025.19 1025.15 1025.14 1025.15 1025.18 1025.21 1025.23 1025.24 1025.20 1025.13 1025.00
1020.33 1020.69 1020.92 1021.06 1021.15 1021.22 1021.29 1021.38 1021.49 1021.63 1021.78 1021.93 1022.07 1022.19 1022.31 1022.43 1022.56 1022.72 1022.92 1023.16 1023.46 1023.79 1024.14 1024.49 1024.82 1025.11 1025.33 1025.49 1025.57 1025.59 1025.56 1025.49 1025.41 1025.33 1025.27 1025.22 1025.19 1025.18 1025.16 1025.13 1025.07 1024.98 1024.84
1020.51 1020.86 1021.08 1021.21 1021.28 1021.33 1021.39 1021.46 1021.56 1021.70 1021.86 1022.02 1022.20 1022.37 1022.53 1022.71 1022.89 1023.10 1023.33 1023.61 1023.92 1024.25 1024.60 1024.95 1025.26 1025.52 1025.72 1025.84 1025.88 1025.86 1025.78 1025.67 1025.53 1025.39 1025.27 1025.17 1025.09 1025.03 1024.99 1024.93 1024.87 1024.77 1024.65
1020.58 1020.92 1021.15 1021.28 1021.36 1021.42 1021.47 1021.55 1021.66 1021.81 1021.99 1022.19 1022.40 1022.62 1022.84 1023.07 1023.30 1023.55 1023.82 1024.11 1024.43 1024.75 1025.08 1025.39 1025.65 1025.87 1026.01 1026.08 1026.07 1025.98 1025.85 1025.67 1025.48 1025.29 1025.12 1024.97 1024.86 1024.78 1024.72 1024.66 1024.60 1024.53 1024.43
Thickness
5722 5723 5721 5720 5721 5721 5720 5720 5718 5719 5719 5718 5717 5715 5713 5712 5709 5709 5708 5707 5706 5705 5704 5705 5704 5704 5703 5702 5702 5700 5698 5696 5695 5690 5687 5687 5688 5687 5687 5686 5684 5682 5680
5711 5710 5710 5709 5709 5709 5709 5708 5708 5708 5709 5709 5710 5708 5706 5705 5702 5700 5699 5699 5698 5697 5697 5696 5696 5696 5696 5695 5694 5693 5691 5689 5689 5685 5679 5674 5673 5677 5678 5677 5676 5674 5672
5700 5698 5697 5697 5697 5697 5697 5698 5698 5698 5698 5700 5700 5699 5697 5695 5692 5690 5689 5688 5689 5689 5689 5688 5688 5687 5688 5687 5686 5685 5684 5681 5681 5680 5676 5670 5665 5664 5665 5666 5665 5663 5662
5692 5689 5687 5686 5686 5685 5686 5685 5686 5686 5687 5688 5688 5687 5685 5681 5680 5678 5677 5677 5677 5678 5678 5678 5678 5677 5678 5678 5677 5676 5677 5675 5671 5671 5670 5669 5667 5660 5654 5653 5653 5653 5651
5682 5680 5678 5676 5675 5675 5675 5674 5674 5675 5675 5675 5675 5675 5674 5672 5670 5668 5667 5666 5666 5666 5666 5667 5667 5667 5667 5667 5666 5666 5666 5665 5662 5661 5660 5659 5658 5657 5651 5644 5642 5641 5640
5674 5671 5669 5666 5665 5664 5664 5663 5662 5662 5662 5663 5663 5663 5662 5660 5659 5657 5656 5655 5654 5653 5654 5655 5656 5655 5655 5655 5655 5655 5655 5654 5652 5651 5650 5649 5647 5645 5643 5638 5634 5631 5630
5665 5661 5658 5655 5653 5652 5651 5651 5651 5650 5650 5650 5650 5650 5650 5649 5648 5647 5645 5643 5642 5641 5641 5642 5642 5642 5643 5643 5643 5643 5642 5642 5641 5640 5640 5639 5638 5638 5636 5632 5627 5623 5621
5655 5651 5647 5644 5642 5640 5639 5638 5638 5638 5638 5638 5638 5637 5638 5637 5636 5635 5633 5632 5630 5629 5628 5629 5630 5630 5630 5630 5630 5630 5629 5629 5629 5629 5628 5628 5628 5628 5626 5623 5618 5614 5611
5645 5641 5637 5634 5631 5629 5627 5626 5626 5626 5626 5625 5625 5625 5625 5624 5623 5622 5621 5620 5618 5618 5617 5617 5618 5618 5618 5618 5618 5618 5617 5617 5617 5617 5616 5616 5616 5616 5615 5613 5611 5606 5602
5636 5631 5627 5624 5621 5619 5616 5615 5614 5613 5613 5612 5612 5612 5611 5610 5610 5609 5608 5607 5606 5606 5606 5605 5606 5606 5607 5607 5606 5605 5605 5605 5604 5603 5603 5603 5604 5604 5603 5602 5600 5599 5595
5628 5623 5618 5615 5612 5609 5606 5604 5602 5601 5600 5599 5598 5598 5597 5596 5596 5596 5595 5594 5594 5594 5594 5594 5594 5594 5594 5594 5594 5593 5593 5592 5592 5591 5591 5590 5591 5590 5591 5590 5589 5587 5584
5621 5615 5610 5606 5602 5598 5595 5592 5590 5588 5586 5586 5585 5584 5583 5583 5583 5582 5582 5582 5582 5582 5581 5581 5581 5582 5581 5581 5582 5581 5580 5580 5579 5579 5579 5578 5578 5577 5577 5577 5576 5574 5572
5611 5605 5600 5595 5591 5586 5583 5580 5578 5576 5574 5573 5572 5571 5570 5570 5570 5569 5569 5570 5570 5570 5570 5570 5569 5569 5569 5569 5569 5569 5569 5568 5568 5567 5566 5565 5564 5563 5563 5563 5563 5562 5561
5602 5595 5589 5584 5580 5576 5572 5569 5566 5565 5563 5561 5560 5559 5558 5557 5557 5557 5557 5558 5558 5558 5558 5558 5558 5558 5557 5557 5557 5557 5557 5557 5556 5555 5554 5552 5551 5550 5550 5550 5549 5549 5548
5593 5586 5579 5574 5569 5565 5561 5558 5555 5553 5552 5551 5549 5547 5546 5546 5546 5546 5546 5546 5547 5547 5548 5547 5547 5546 5546 5544 5543 5546 5547 5546 5545 5544 5543 5541 5539 5537 5537 5537 5535 5535 5534
5584 5577 5571 5565 5560 5555 5552 5548 5545 5543 5541 5540 5539 5538 5537 5537 5536 5536 5536 5535 5536 5537 5537 5537 5536 5535 5533 5532 5533 5534 5536 5536 5536 5535 5533 5531 5530 5528 5527 5525 5524 5523 5522
5577 5570 5563 5557 5551 5547 5544 5540 5537 5534 5533 5531 5531 5530 5529 5529 5528 5529 5528 5527 5528 5528 5528 5528 5527 5525 5522 5522 5524 5524 5526 5527 5527 5527 5526 5526 5522 5519 5518 5517 5516 5514 5512
5570 5562 5556 5549 5544 5540 5537 5533 5530 5528 5527 5525 5524 5523 5523 5522 5521 5521 5520 5520 5520 5520 5520 5520 5519 5517 5514 5514 5515 5516 5519 5520 5519 5519 5518 5514 5511 5509 5508 5509 5509 5508 5507
5563 5555 5548 5543 5538 5534 5530 5528 5525 5523 5522 5520 5518 5517 5517 5516 5515 5514 5514 5514 5513 5514 5514 5513 5511 5509 5507 5507 5507 5508 5512 5513 5512 5510 5508 5507 5503 5501 5501 5502 5502 5501 5500
5554 5548 5542 5536 5531 5528 5525 5522 5520 5518 5516 5516 5514 5513 5512 5511 5510 5509 5509 5509 5509 5508 5508 5507 5505 5503 5501 5500 5501 5502 5506 5506 5505 5503 5500 5497 5496 5495 5494 5494 5494 5493 5492
5547 5541 5536 5530 5526 5523 5520 5517 5515 5513 5512 5511 5510 5509 5508 5507 5507 5505 5505 5505 5505 5504 5503 5501 5499 5498 5496 5494 5495 5495 5497 5497 5498 5497 5495 5491 5490 5489 5488 5487 5487 5486 5485
5541 5536 5530 5525 5521 5519 5516 5513 5511 5510 5509 5508 5507 5505 5504 5504 5503 5502 5501 5501 5500 5499 5498 5496 5494 5493 5491 5490 5489 5489 5489 5489 5490 5490 5488 5486 5485 5484 5484 5484 5484 5483 5483
5536 5531 5526 5521 5517 5515 5513 5510 5508 5508 5506 5505 5503 5502 5501 5500 5499 5499 5498 5498 5497 5497 5495 5494 5492 5490 5487 5485 5484 5484 5484 5484 5484 5483 5482 5482 5481 5481 5482 5482 5481 5481 5482
5532 5527 5523 5519 5515 5512 5510 5508 5506 5504 5503 5502 5500 5499 5498 5497 5496 5496 5495 5494 5493 5492 5492 5491 5488 5486 5484 5481 5480 5480 5480 5479 5479 5479 5479 5480 5479 5479 5478 5479 5480 5481 5481
5529 5525 5521 5517 5513 5511 5508 5506 5504 5502 5501 5499 5498 5498 5496 5495 5493 5490 5487 5487 5483 5483 5484 5485 5484 5482 5478 5472 5472 5472 5474 5473 5473 5473 5476 5478 5479 5479 5479 5479 5480 5480 5480
5526 5522 5518 5515 5512 5509 5507 5505 5503 5502 5500 5498 5497 5497 5496 5494 5492 5488 5484 5479 5479 5478 5477 5476 5475 5473 5472 5470 5470 5470 5470 5470 5470 5471 5474 5476 5477 5478 5477 5477 5478 5478 5478